Time,TemperatureF,DewpointF,PressureIn,WindDirection,WindDirectionDegrees,WindSpeedMPH,WindSpeedGustMPH,Humidity,HourlyPrecipIn,Conditions,Clouds,dailyrainin,SoftwareType,DateUTC
2013-03-07 00:00:00,42.1,32.3,29.80,North,0,0.0,0.0,68,0.00,CLR,CLR,0.00,WeatherDisplay:10.37,2013-03-07 05:00:00,
2013-03-07 00:01:00,42.1,32.3,29.80,North,0,0.0,0.0,68,0.00,CLR,CLR,0.00,WeatherDisplay:10.37,2013-03-07 05:01:00,
2013-03-07 00:06:00,42.1,32.3,29.80,North,0,0.0,0.0,68,0.00,CLR,CLR,0.00,WeatherDisplay:10.37,2013-03-07 05:06:00,
2013-03-07 00:11:00,42.1,32.3,29.80,North,0,0.0,0.0,68,0.00,CLR,CLR,0.00,WeatherDisplay:10.37,2013-03-07 05:11:00,
2013-03-07 00:17:00,42.1,32.3,29.80,North,0,0.0,0.0,68,0.00,CLR,CLR,0.00,WeatherDisplay:10.37,2013-03-07 05:17:00,
2013-03-07 00:22:00,42.1,31.9,29.83,North,0,0.0,0.0,67,0.00,CLR,CLR,0.00,WeatherDisplay:10.37,2013-03-07 05:22:00,
2013-03-07 00:27:00,41.9,31.7,29.83,North,0,0.0,0.0,67,0.00,CLR,CLR,0.00,WeatherDisplay:10.37,2013-03-07 05:27:00,
2013-03-07 00:32:00,41.9,31.7,29.80,North,0,0.0,0.0,67,0.00,CLR,CLR,0.00,WeatherDisplay:10.37,2013-03-07 05:32:00,
2013-03-07 00:37:00,41.9,31.7,29.80,North,0,0.0,0.0,67,0.00,CLR,CLR,0.00,WeatherDisplay:10.37,2013-03-07 05:37:00,
2013-03-07 00:42:00,42.1,31.5,29.80,North,0,0.0,0.0,66,0.00,CLR,CLR,0.00,WeatherDisplay:10.37,2013-03-07 05:42:00,
2013-03-07 00:47:00,42.1,31.2,29.83,North,0,0.0,0.0,65,0.00,CLR,CLR,0.00,WeatherDisplay:10.37,2013-03-07 05:47:00,
2013-03-07 00:52:00,41.9,31.4,29.83,North,0,0.0,0.0,66,0.00,CLR,CLR,0.00,WeatherDisplay:10.37,2013-03-07 05:52:00,
2013-03-07 00:57:00,41.7,30.8,29.83,North,0,0.0,0.0,65,0.00,CLR,CLR,0.00,WeatherDisplay:10.37,2013-03-07 05:57:00,
2013-03-07 01:03:00,41.5,31.0,29.83,North,0,0.0,0.0,66,0.00,CLR,CLR,0.00,WeatherDisplay:10.37,2013-03-07 06:03:00,
2013-03-07 01:08:00,41.5,31.0,29.83,North,0,0.0,0.0,66,0.00,CLR,CLR,0.00,WeatherDisplay:10.37,2013-03-07 06:08:00,
2013-03-07 01:13:00,41.5,31.0,29.83,North,0,0.0,0.0,66,0.00,CLR,CLR,0.00,WeatherDisplay:10.37,2013-03-07 06:13:00,
2013-03-07 01:18:00,41.5,31.0,29.83,North,0,0.0,0.0,66,0.00,CLR,CLR,0.00,WeatherDisplay:10.37,2013-03-07 06:18:00,
2013-03-07 01:23:00,41.4,30.8,29.83,North,0,0.0,0.0,66,0.00,CLR,CLR,0.00,WeatherDisplay:10.37,2013-03-07 06:23:00,
2013-03-07 01:28:00,41.4,30.8,29.83,North,0,0.0,0.0,66,0.00,CLR,CLR,0.00,WeatherDisplay:10.37,2013-03-07 06:28:00,
2013-03-07 01:33:00,41.4,30.8,29.83,North,0,0.0,0.0,66,0.00,CLR,CLR,0.00,WeatherDisplay:10.37,2013-03-07 06:33:00,
2013-03-07 01:38:00,41.4,30.8,29.83,North,0,0.0,0.0,66,0.00,CLR,CLR,0.00,WeatherDisplay:10.37,2013-03-07 06:38:00,
2013-03-07 01:43:00,41.2,30.7,29.83,North,0,0.0,0.0,66,0.00,CLR,CLR,0.00,WeatherDisplay:10.37,2013-03-07 06:43:00,
2013-03-07 01:48:00,41.2,30.3,29.83,North,0,0.0,0.0,65,0.00,CLR,CLR,0.00,WeatherDisplay:10.37,2013-03-07 06:48:00,
2013-03-07 01:53:00,40.8,30.3,29.83,North,0,0.0,0.0,66,0.00,CLR,CLR,0.00,WeatherDisplay:10.37,2013-03-07 06:53:00,
2013-03-07 01:58:00,40.6,30.2,29.83,North,0,0.0,0.0,66,0.00,CLR,CLR,0.00,WeatherDisplay:10.37,2013-03-07 06:58:00,
2013-03-07 02:04:00,40.3,30.2,29.85,North,0,0.0,0.0,67,0.00,CLR,CLR,0.00,WeatherDisplay:10.37,2013-03-07 07:04:00,
2013-03-07 02:09:00,40.3,29.8,29.85,North,0,0.0,0.0,66,0.00,CLR,CLR,0.00,WeatherDisplay:10.37,2013-03-07 07:09:00,
2013-03-07 02:14:00,39.9,29.8,29.85,North,0,0.0,0.0,67,0.00,CLR,CLR,0.00,WeatherDisplay:10.37,2013-03-07 07:14:00,
2013-03-07 02:20:00,40.1,30.0,29.85,North,0,0.0,0.0,67,0.00,CLR,CLR,0.00,WeatherDisplay:10.37,2013-03-07 07:20:00,
2013-03-07 02:25:00,40.1,29.6,29.85,North,0,0.0,0.0,66,0.00,CLR,CLR,0.00,WeatherDisplay:10.37,2013-03-07 07:25:00,
2013-03-07 02:30:00,40.1,29.6,29.85,North,0,0.0,0.0,66,0.00,CLR,CLR,0.00,WeatherDisplay:10.37,2013-03-07 07:30:00,
2013-03-07 02:35:00,40.1,29.6,29.85,North,0,0.0,0.0,66,0.00,CLR,CLR,0.00,WeatherDisplay:10.37,2013-03-07 07:35:00,
2013-03-07 02:40:00,40.3,29.4,29.85,North,0,0.0,0.0,65,0.00,CLR,CLR,0.00,WeatherDisplay:10.37,2013-03-07 07:40:00,
2013-03-07 02:45:00,39.7,29.3,29.85,North,0,0.0,0.0,66,0.00,CLR,CLR,0.00,WeatherDisplay:10.37,2013-03-07 07:45:00,
2013-03-07 02:50:00,39.9,29.5,29.85,North,0,0.0,0.0,66,0.00,CLR,CLR,0.00,WeatherDisplay:10.37,2013-03-07 07:50:00,
2013-03-07 02:56:00,39.7,29.3,29.85,North,0,0.0,0.0,66,0.00,CLR,CLR,0.00,WeatherDisplay:10.37,2013-03-07 07:56:00,
2013-03-07 03:01:00,39.7,29.3,29.85,North,0,0.0,0.0,66,0.00,CLR,CLR,0.00,WeatherDisplay:10.37,2013-03-07 08:01:00,
2013-03-07 03:06:00,39.9,29.1,29.85,North,0,0.0,0.0,65,0.00,CLR,CLR,0.00,WeatherDisplay:10.37,2013-03-07 08:06:00,
2013-03-07 03:11:00,39.9,29.1,29.85,North,0,0.0,0.0,65,0.00,CLR,CLR,0.00,WeatherDisplay:10.37,2013-03-07 08:11:00,
2013-03-07 03:16:00,39.9,28.7,29.85,North,0,0.0,0.0,64,0.00,CLR,CLR,0.00,WeatherDisplay:10.37,2013-03-07 08:16:00,
2013-03-07 03:22:00,39.9,28.7,29.85,North,0,0.0,0.0,64,0.00,CLR,CLR,0.00,WeatherDisplay:10.37,2013-03-07 08:22:00,
2013-03-07 03:27:00,39.9,28.7,29.85,North,0,0.0,0.0,64,0.00,CLR,CLR,0.00,WeatherDisplay:10.37,2013-03-07 08:27:00,
2013-03-07 03:32:00,39.9,28.7,29.85,North,0,0.0,0.0,64,0.00,CLR,CLR,0.00,WeatherDisplay:10.37,2013-03-07 08:32:00,
2013-03-07 03:37:00,40.3,28.7,29.88,North,0,0.0,0.0,63,0.00,CLR,CLR,0.00,WeatherDisplay:10.37,2013-03-07 08:37:00,
2013-03-07 03:42:00,40.5,28.5,29.88,North,0,0.0,0.0,62,0.00,CLR,CLR,0.00,WeatherDisplay:10.37,2013-03-07 08:42:00,
2013-03-07 03:47:00,40.5,28.5,29.88,North,0,0.0,0.0,62,0.00,CLR,CLR,0.00,WeatherDisplay:10.37,2013-03-07 08:47:00,
2013-03-07 03:53:00,40.3,28.3,29.88,North,0,0.0,0.0,62,0.00,CLR,CLR,0.00,WeatherDisplay:10.37,2013-03-07 08:53:00,
2013-03-07 03:58:00,40.3,28.3,29.88,North,0,0.0,0.0,62,0.00,CLR,CLR,0.00,WeatherDisplay:10.37,2013-03-07 08:58:00,
2013-03-07 04:03:00,40.3,28.3,29.88,North,0,0.0,0.0,62,0.00,CLR,CLR,0.00,WeatherDisplay:10.37,2013-03-07 09:03:00,
2013-03-07 04:08:00,40.1,28.1,29.88,North,0,0.0,0.0,62,0.00,CLR,CLR,0.00,WeatherDisplay:10.37,2013-03-07 09:08:00,
2013-03-07 04:13:00,40.1,28.1,29.88,North,0,0.0,0.0,62,0.00,CLR,CLR,0.00,WeatherDisplay:10.37,2013-03-07 09:13:00,
2013-03-07 04:18:00,39.7,28.2,29.88,North,0,0.0,0.0,63,0.00,CLR,CLR,0.00,WeatherDisplay:10.37,2013-03-07 09:18:00,
2013-03-07 04:24:00,39.7,28.2,29.88,North,0,0.0,0.0,63,0.00,CLR,CLR,0.00,WeatherDisplay:10.37,2013-03-07 09:24:00,
2013-03-07 04:29:00,39.7,27.8,29.88,North,0,0.0,0.0,62,0.00,CLR,CLR,0.00,WeatherDisplay:10.37,2013-03-07 09:29:00,
2013-03-07 04:34:00,39.4,27.8,29.88,North,0,0.0,0.0,63,0.00,CLR,CLR,0.00,WeatherDisplay:10.37,2013-03-07 09:34:00,
2013-03-07 04:39:00,39.7,27.8,29.88,North,0,0.0,0.0,62,0.00,CLR,CLR,0.00,WeatherDisplay:10.37,2013-03-07 09:39:00,
2013-03-07 04:45:00,39.6,27.6,29.88,North,0,0.0,0.0,62,0.00,CLR,CLR,0.00,WeatherDisplay:10.37,2013-03-07 09:45:00,
2013-03-07 04:50:00,39.4,27.4,29.91,North,0,0.0,0.0,62,0.00,CLR,CLR,0.00,WeatherDisplay:10.37,2013-03-07 09:50:00,
2013-03-07 04:55:00,39.4,27.8,29.91,North,0,0.0,0.0,63,0.00,CLR,CLR,0.00,WeatherDisplay:10.37,2013-03-07 09:55:00,
2013-03-07 05:00:00,39.6,27.6,29.91,North,0,0.0,0.0,62,0.00,CLR,CLR,0.00,WeatherDisplay:10.37,2013-03-07 10:00:00,
2013-03-07 05:06:00,39.6,27.6,29.91,North,0,0.0,0.0,62,0.00,CLR,CLR,0.00,WeatherDisplay:10.37,2013-03-07 10:06:00,
2013-03-07 05:11:00,39.2,27.7,29.91,North,0,0.0,0.0,63,0.00,CLR,CLR,0.00,WeatherDisplay:10.37,2013-03-07 10:11:00,
2013-03-07 05:16:00,39.4,27.4,29.91,North,0,0.0,0.0,62,0.00,CLR,CLR,0.00,WeatherDisplay:10.37,2013-03-07 10:16:00,
2013-03-07 05:21:00,39.4,27.4,29.91,North,0,0.0,0.0,62,0.00,CLR,CLR,0.00,WeatherDisplay:10.37,2013-03-07 10:21:00,
2013-03-07 05:27:00,39.0,27.5,29.91,North,0,0.0,0.0,63,0.00,CLR,CLR,0.00,WeatherDisplay:10.37,2013-03-07 10:27:00,
2013-03-07 05:32:00,38.8,27.7,29.91,North,0,0.0,0.0,64,0.00,CLR,CLR,0.00,WeatherDisplay:10.37,2013-03-07 10:32:00,
2013-03-07 05:37:00,39.0,27.9,29.91,North,0,0.0,0.0,64,0.00,CLR,CLR,0.00,WeatherDisplay:10.37,2013-03-07 10:37:00,
2013-03-07 05:42:00,38.8,27.7,29.91,North,0,0.0,0.0,64,0.00,CLR,CLR,0.00,WeatherDisplay:10.37,2013-03-07 10:42:00,
2013-03-07 05:47:00,38.7,27.5,29.91,North,0,0.0,0.0,64,0.00,CLR,CLR,0.00,WeatherDisplay:10.37,2013-03-07 10:47:00,
2013-03-07 05:53:00,38.7,27.5,29.91,North,0,0.0,0.0,64,0.00,CLR,CLR,0.00,WeatherDisplay:10.37,2013-03-07 10:53:00,
2013-03-07 05:58:00,38.7,27.9,29.91,North,0,0.0,0.0,65,0.00,CLR,CLR,0.00,WeatherDisplay:10.37,2013-03-07 10:58:00,
2013-03-07 06:03:00,38.5,27.7,29.91,North,0,0.0,0.0,65,0.00,CLR,CLR,0.00,WeatherDisplay:10.37,2013-03-07 11:03:00,
2013-03-07 06:08:00,38.3,27.6,29.91,North,0,0.0,0.0,65,0.00,CLR,CLR,0.00,WeatherDisplay:10.37,2013-03-07 11:08:00,
2013-03-07 06:13:00,38.5,27.7,29.91,North,0,0.0,0.0,65,0.00,CLR,CLR,0.00,WeatherDisplay:10.37,2013-03-07 11:13:00,
2013-03-07 06:18:00,38.3,27.6,29.91,North,0,0.0,0.0,65,0.00,CLR,CLR,0.00,WeatherDisplay:10.37,2013-03-07 11:18:00,
2013-03-07 06:23:00,38.5,27.7,29.91,North,0,0.0,0.0,65,0.00,CLR,CLR,0.00,WeatherDisplay:10.37,2013-03-07 11:23:00,
2013-03-07 06:29:00,38.3,27.6,29.91,North,0,0.0,0.0,65,0.00,CLR,CLR,0.00,WeatherDisplay:10.37,2013-03-07 11:29:00,
2013-03-07 06:34:00,38.5,27.7,29.94,North,0,0.0,0.0,65,0.00,CLR,CLR,0.00,WeatherDisplay:10.37,2013-03-07 11:34:00,
2013-03-07 06:39:00,38.5,27.7,29.94,North,0,0.0,0.0,65,0.00,CLR,CLR,0.00,WeatherDisplay:10.37,2013-03-07 11:39:00,
2013-03-07 06:45:00,38.5,27.7,29.94,North,0,0.0,0.0,65,0.00,CLR,CLR,0.00,WeatherDisplay:10.37,2013-03-07 11:45:00,
2013-03-07 06:50:00,38.7,27.9,29.94,North,0,0.0,0.0,65,0.00,CLR,CLR,0.00,WeatherDisplay:10.37,2013-03-07 11:50:00,
2013-03-07 06:55:00,38.7,27.9,29.94,North,0,0.0,0.0,65,0.00,CLR,CLR,0.00,WeatherDisplay:10.37,2013-03-07 11:55:00,
2013-03-07 07:00:00,38.8,27.7,29.94,North,0,0.0,0.0,64,0.00,CLR,CLR,0.00,WeatherDisplay:10.37,2013-03-07 12:00:00,
2013-03-07 07:05:00,38.8,27.7,29.97,North,0,0.0,0.0,64,0.00,CLR,CLR,0.00,WeatherDisplay:10.37,2013-03-07 12:05:00,
2013-03-07 07:11:00,39.2,27.7,29.97,North,0,0.0,0.0,63,0.00,CLR,CLR,0.00,WeatherDisplay:10.37,2013-03-07 12:11:00,
2013-03-07 07:16:00,39.4,27.4,29.97,North,0,0.0,0.0,62,0.00,CLR,CLR,0.00,WeatherDisplay:10.37,2013-03-07 12:16:00,
2013-03-07 07:21:00,39.7,27.8,29.97,North,0,0.0,0.0,62,0.00,CLR,CLR,0.00,WeatherDisplay:10.37,2013-03-07 12:21:00,
2013-03-07 07:26:00,39.9,27.5,29.97,North,0,0.0,0.0,61,0.00,CLR,CLR,0.00,WeatherDisplay:10.37,2013-03-07 12:26:00,
2013-03-07 07:32:00,40.1,28.1,29.97,North,0,0.0,0.0,62,0.00,CLR,CLR,0.00,WeatherDisplay:10.37,2013-03-07 12:32:00,
2013-03-07 07:37:00,40.6,27.8,29.97,North,0,0.0,0.0,60,0.00,CLR,CLR,0.00,WeatherDisplay:10.37,2013-03-07 12:37:00,
2013-03-07 07:42:00,41.0,27.3,29.97,North,0,0.0,0.0,58,0.00,CLR,CLR,0.00,WeatherDisplay:10.37,2013-03-07 12:42:00,
2013-03-07 07:47:00,41.4,27.7,29.97,North,0,0.0,0.0,58,0.00,CLR,CLR,0.00,WeatherDisplay:10.37,2013-03-07 12:47:00,
2013-03-07 07:52:00,41.7,27.6,29.97,North,0,0.0,0.0,57,0.00,CLR,CLR,0.00,WeatherDisplay:10.37,2013-03-07 12:52:00,
2013-03-07 07:58:00,42.1,27.5,29.97,North,0,0.0,0.0,56,0.00,CLR,CLR,0.00,WeatherDisplay:10.37,2013-03-07 12:58:00,
2013-03-07 08:03:00,42.4,27.8,29.97,North,0,0.0,0.0,56,0.00,CLR,CLR,0.00,WeatherDisplay:10.37,2013-03-07 13:03:00,
2013-03-07 08:08:00,42.8,27.7,29.97,North,0,0.0,0.0,55,0.00,CLR,CLR,0.00,WeatherDisplay:10.37,2013-03-07 13:08:00,
2013-03-07 08:13:00,43.2,27.6,29.97,North,0,0.0,0.0,54,0.00,CLR,CLR,0.00,WeatherDisplay:10.37,2013-03-07 13:13:00,
2013-03-07 08:18:00,43.7,28.1,29.97,North,0,0.0,0.0,54,0.00,CLR,CLR,0.00,WeatherDisplay:10.37,2013-03-07 13:18:00,
2013-03-07 08:24:00,44.1,28.0,29.97,North,0,0.0,0.0,53,0.00,CLR,CLR,0.00,WeatherDisplay:10.37,2013-03-07 13:24:00,
2013-03-07 08:29:00,44.2,28.2,29.97,North,0,0.0,0.0,53,0.00,CLR,CLR,0.00,WeatherDisplay:10.37,2013-03-07 13:29:00,
2013-03-07 08:34:00,44.6,27.6,30.00,North,0,0.0,0.0,51,0.00,CLR,CLR,0.00,WeatherDisplay:10.37,2013-03-07 13:34:00,
2013-03-07 08:39:00,45.3,28.7,30.00,North,0,0.0,0.0,52,0.00,CLR,CLR,0.00,WeatherDisplay:10.37,2013-03-07 13:39:00,
2013-03-07 08:44:00,45.5,28.4,30.00,North,0,0.0,0.0,51,0.00,CLR,CLR,0.00,WeatherDisplay:10.37,2013-03-07 13:44:00,
2013-03-07 08:49:00,46.0,28.9,30.00,North,0,0.0,0.0,51,0.00,CLR,CLR,0.00,WeatherDisplay:10.37,2013-03-07 13:49:00,
2013-03-07 08:54:00,46.0,28.9,30.00,North,0,0.0,0.0,51,0.00,CLR,CLR,0.00,WeatherDisplay:10.37,2013-03-07 13:54:00,
2013-03-07 08:59:00,46.4,28.3,30.00,North,0,0.0,0.0,49,0.00,CLR,CLR,0.00,WeatherDisplay:10.37,2013-03-07 13:59:00,
2013-03-07 09:04:00,47.1,29.4,30.00,North,0,0.0,0.0,50,0.00,CLR,CLR,0.00,WeatherDisplay:10.37,2013-03-07 14:04:00,
2013-03-07 09:09:00,47.3,29.1,30.00,North,0,0.0,0.0,49,0.00,CLR,CLR,0.00,WeatherDisplay:10.37,2013-03-07 14:09:00,
2013-03-07 09:15:00,47.3,28.6,30.00,North,0,0.0,0.0,48,0.00,CLR,CLR,0.00,WeatherDisplay:10.37,2013-03-07 14:15:00,
2013-03-07 09:20:00,47.7,28.9,30.00,North,0,0.0,0.0,48,0.00,CLR,CLR,0.00,WeatherDisplay:10.37,2013-03-07 14:20:00,
2013-03-07 09:25:00,48.2,29.4,30.00,North,0,0.0,0.0,48,0.00,CLR,CLR,0.00,WeatherDisplay:10.37,2013-03-07 14:25:00,
2013-03-07 09:30:00,48.0,29.2,30.00,North,0,0.0,0.0,48,0.00,CLR,CLR,0.00,WeatherDisplay:10.37,2013-03-07 14:30:00,
2013-03-07 09:35:00,48.0,28.7,30.00,North,0,0.0,0.0,47,0.00,CLR,CLR,0.00,WeatherDisplay:10.37,2013-03-07 14:35:00,
2013-03-07 09:41:00,48.7,29.4,30.00,North,0,0.0,0.0,47,0.00,CLR,CLR,0.00,WeatherDisplay:10.37,2013-03-07 14:41:00,
2013-03-07 09:46:00,48.4,28.5,30.00,North,0,0.0,0.0,46,0.00,CLR,CLR,0.00,WeatherDisplay:10.37,2013-03-07 14:46:00,
2013-03-07 09:51:00,48.6,28.7,30.00,North,0,0.0,0.0,46,0.00,CLR,CLR,0.00,WeatherDisplay:10.37,2013-03-07 14:51:00,
2013-03-07 09:56:00,49.3,29.9,30.00,North,0,0.0,0.0,47,0.00,CLR,CLR,0.00,WeatherDisplay:10.37,2013-03-07 14:56:00,
2013-03-07 10:02:00,48.4,29.1,30.00,North,0,0.0,0.0,47,0.00,CLR,CLR,0.00,WeatherDisplay:10.37,2013-03-07 15:02:00,
2013-03-07 10:07:00,49.3,29.9,30.00,North,0,0.0,0.0,47,0.00,CLR,CLR,0.00,WeatherDisplay:10.37,2013-03-07 15:07:00,
2013-03-07 10:13:00,49.1,29.2,30.00,North,0,0.0,0.0,46,0.00,CLR,CLR,0.00,WeatherDisplay:10.37,2013-03-07 15:13:00,
2013-03-07 10:18:00,49.1,29.2,30.00,North,0,0.0,0.0,46,0.00,CLR,CLR,0.00,WeatherDisplay:10.37,2013-03-07 15:18:00,
2013-03-07 10:23:00,48.9,29.0,30.00,North,0,0.0,0.0,46,0.00,CLR,CLR,0.00,WeatherDisplay:10.37,2013-03-07 15:23:00,
2013-03-07 10:28:00,49.3,29.4,30.00,North,0,0.0,0.0,46,0.00,CLR,CLR,0.00,WeatherDisplay:10.37,2013-03-07 15:28:00,
2013-03-07 10:33:00,49.8,29.8,30.00,North,0,0.0,0.0,46,0.00,CLR,CLR,0.00,WeatherDisplay:10.37,2013-03-07 15:33:00,
2013-03-07 10:39:00,50.0,30.0,30.00,North,0,0.0,0.0,46,0.00,CLR,CLR,0.00,WeatherDisplay:10.37,2013-03-07 15:39:00,
2013-03-07 10:44:00,50.5,30.5,30.00,North,0,0.0,0.0,46,0.00,CLR,CLR,0.00,WeatherDisplay:10.37,2013-03-07 15:44:00,
2013-03-07 10:49:00,50.2,29.6,30.00,North,0,0.0,0.0,45,0.00,CLR,CLR,0.00,WeatherDisplay:10.37,2013-03-07 15:49:00,
2013-03-07 10:54:00,50.0,30.5,30.00,North,0,0.0,0.0,47,0.00,CLR,CLR,0.00,WeatherDisplay:10.37,2013-03-07 15:54:00,
2013-03-07 11:00:00,50.2,29.6,30.00,North,0,0.0,0.0,45,0.00,CLR,CLR,0.00,WeatherDisplay:10.37,2013-03-07 16:00:00,
2013-03-07 11:05:00,50.5,30.5,30.00,North,0,0.0,0.0,46,0.00,CLR,CLR,0.00,WeatherDisplay:10.37,2013-03-07 16:05:00,
2013-03-07 11:10:00,50.5,30.0,30.00,North,0,0.0,0.0,45,0.00,CLR,CLR,0.00,WeatherDisplay:10.37,2013-03-07 16:10:00,
2013-03-07 11:15:00,50.5,30.0,30.00,North,0,0.0,0.0,45,0.00,CLR,CLR,0.00,WeatherDisplay:10.37,2013-03-07 16:15:00,
2013-03-07 11:21:00,50.2,30.2,30.00,North,0,0.0,0.0,46,0.00,CLR,CLR,0.00,WeatherDisplay:10.37,2013-03-07 16:21:00,
2013-03-07 11:26:00,51.1,31.0,30.00,North,0,0.0,0.0,46,0.00,CLR,CLR,0.00,WeatherDisplay:10.37,2013-03-07 16:26:00,
2013-03-07 11:31:00,51.3,31.2,30.00,North,0,0.0,0.0,46,0.00,CLR,CLR,0.00,WeatherDisplay:10.37,2013-03-07 16:31:00,
2013-03-07 11:36:00,51.1,30.5,30.00,North,0,0.0,0.0,45,0.00,CLR,CLR,0.00,WeatherDisplay:10.37,2013-03-07 16:36:00,
2013-03-07 11:41:00,50.5,28.8,30.00,North,0,0.0,0.0,43,0.00,CLR,CLR,0.00,WeatherDisplay:10.37,2013-03-07 16:41:00,
2013-03-07 11:46:00,51.4,30.8,30.00,North,0,0.0,0.0,45,0.00,CLR,CLR,0.00,WeatherDisplay:10.37,2013-03-07 16:46:00,
2013-03-07 11:52:00,52.5,31.8,29.97,North,0,0.0,0.0,45,0.00,CLR,CLR,0.00,WeatherDisplay:10.37,2013-03-07 16:52:00,
2013-03-07 11:57:00,52.0,30.2,29.97,North,0,0.0,0.0,43,0.00,CLR,CLR,0.00,WeatherDisplay:10.37,2013-03-07 16:57:00,
2013-03-07 12:02:00,51.6,51.6,30.00,North,0,0.0,0.0,100,0.00,CLR,CLR,0.00,WeatherDisplay:10.37,2013-03-07 17:02:00,
2013-03-07 12:08:00,52.7,30.8,30.00,North,0,0.0,0.0,43,0.00,CLR,CLR,0.00,WeatherDisplay:10.37,2013-03-07 17:08:00,
2013-03-07 12:13:00,52.7,30.2,30.00,North,0,0.0,0.0,42,0.00,CLR,CLR,0.00,WeatherDisplay:10.37,2013-03-07 17:13:00,
2013-03-07 12:18:00,52.9,30.4,30.00,North,0,0.0,0.0,42,0.00,CLR,CLR,0.00,WeatherDisplay:10.37,2013-03-07 17:18:00,
2013-03-07 12:24:00,53.6,30.4,30.00,North,0,0.0,0.0,41,0.00,CLR,CLR,0.00,WeatherDisplay:10.37,2013-03-07 17:24:00,
2013-03-07 12:29:00,53.2,30.7,30.00,North,0,0.0,0.0,42,0.00,CLR,CLR,0.00,WeatherDisplay:10.37,2013-03-07 17:29:00,
2013-03-07 12:34:00,53.1,30.6,30.00,North,0,0.0,0.0,42,0.00,CLR,CLR,0.00,WeatherDisplay:10.37,2013-03-07 17:34:00,
2013-03-07 12:39:00,53.8,31.2,30.00,North,0,0.0,0.0,42,0.00,CLR,CLR,0.00,WeatherDisplay:10.37,2013-03-07 17:39:00,
2013-03-07 12:44:00,53.6,29.8,30.00,North,0,0.0,0.0,40,0.00,CLR,CLR,0.00,WeatherDisplay:10.37,2013-03-07 17:44:00,
2013-03-07 12:50:00,53.8,30.6,29.97,North,0,0.0,0.0,41,0.00,CLR,CLR,0.00,WeatherDisplay:10.37,2013-03-07 17:50:00,
2013-03-07 12:55:00,54.1,30.3,29.97,North,0,0.0,0.0,40,0.00,CLR,CLR,0.00,WeatherDisplay:10.37,2013-03-07 17:55:00,
2013-03-07 13:00:00,53.8,30.0,29.97,North,0,0.0,0.0,40,0.00,CLR,CLR,0.00,WeatherDisplay:10.37,2013-03-07 18:00:00,
2013-03-07 13:05:00,54.0,30.2,29.97,North,0,0.0,0.0,40,0.00,CLR,CLR,0.00,WeatherDisplay:10.37,2013-03-07 18:05:00,
2013-03-07 13:11:00,53.8,30.0,29.97,North,0,0.0,0.0,40,0.00,CLR,CLR,0.00,WeatherDisplay:10.37,2013-03-07 18:11:00,
2013-03-07 13:16:00,54.1,30.3,29.97,North,0,0.0,0.0,40,0.00,CLR,CLR,0.00,WeatherDisplay:10.37,2013-03-07 18:16:00,
2013-03-07 13:21:00,54.7,30.8,29.97,North,0,0.0,0.0,40,0.00,CLR,CLR,0.00,WeatherDisplay:10.37,2013-03-07 18:21:00,
2013-03-07 13:26:00,54.5,30.0,29.97,North,0,0.0,0.0,39,0.00,CLR,CLR,0.00,WeatherDisplay:10.37,2013-03-07 18:26:00,
2013-03-07 13:31:00,54.9,30.3,29.97,North,0,0.0,0.0,39,0.00,CLR,CLR,0.00,WeatherDisplay:10.37,2013-03-07 18:31:00,
2013-03-07 13:36:00,54.9,31.0,29.97,North,0,0.0,0.0,40,0.00,CLR,CLR,0.00,WeatherDisplay:10.37,2013-03-07 18:36:00,
2013-03-07 13:41:00,55.0,30.5,29.97,North,0,0.0,0.0,39,0.00,CLR,CLR,0.00,WeatherDisplay:10.37,2013-03-07 18:41:00,
2013-03-07 13:46:00,54.7,30.2,29.97,North,0,0.0,0.0,39,0.00,CLR,CLR,0.00,WeatherDisplay:10.37,2013-03-07 18:46:00,
2013-03-07 13:52:00,55.6,31.6,29.97,North,0,0.0,0.0,40,0.00,CLR,CLR,0.00,WeatherDisplay:10.37,2013-03-07 18:52:00,
2013-03-07 13:57:00,55.6,31.0,29.97,North,0,0.0,0.0,39,0.00,CLR,CLR,0.00,WeatherDisplay:10.37,2013-03-07 18:57:00,
2013-03-07 14:02:00,55.6,30.4,29.97,North,0,0.0,0.0,38,0.00,CLR,CLR,0.00,WeatherDisplay:10.37,2013-03-07 19:02:00,
2013-03-07 14:08:00,55.4,30.2,29.97,North,0,0.0,0.0,38,0.00,CLR,CLR,0.00,WeatherDisplay:10.37,2013-03-07 19:08:00,
2013-03-07 14:13:00,55.8,30.5,29.97,North,0,0.0,0.0,38,0.00,CLR,CLR,0.00,WeatherDisplay:10.37,2013-03-07 19:13:00,
2013-03-07 14:18:00,55.4,30.2,29.97,North,0,0.0,0.0,38,0.00,CLR,CLR,0.00,WeatherDisplay:10.37,2013-03-07 19:18:00,
2013-03-07 14:24:00,56.8,32.1,29.97,North,0,0.0,0.0,39,0.00,CLR,CLR,0.00,WeatherDisplay:10.37,2013-03-07 19:24:00,
2013-03-07 14:29:00,56.1,30.8,29.97,North,0,0.0,0.0,38,0.00,CLR,CLR,0.00,WeatherDisplay:10.37,2013-03-07 19:29:00,
2013-03-07 14:34:00,55.9,30.7,29.97,North,0,0.0,0.0,38,0.00,CLR,CLR,0.00,WeatherDisplay:10.37,2013-03-07 19:34:00,
2013-03-07 14:40:00,56.5,31.2,29.97,North,0,0.0,0.0,38,0.00,CLR,CLR,0.00,WeatherDisplay:10.37,2013-03-07 19:40:00,
2013-03-07 14:45:00,56.3,31.0,29.97,North,0,0.0,0.0,38,0.00,CLR,CLR,0.00,WeatherDisplay:10.37,2013-03-07 19:45:00,
2013-03-07 14:50:00,56.3,31.0,29.97,North,0,0.0,0.0,38,0.00,CLR,CLR,0.00,WeatherDisplay:10.37,2013-03-07 19:50:00,
2013-03-07 14:55:00,56.1,30.8,29.97,North,0,0.0,0.0,38,0.00,CLR,CLR,0.00,WeatherDisplay:10.37,2013-03-07 19:55:00,
2013-03-07 15:01:00,56.1,30.8,29.97,North,0,0.0,0.0,38,0.00,CLR,CLR,0.00,WeatherDisplay:10.37,2013-03-07 20:01:00,
2013-03-07 15:06:00,56.5,31.2,29.97,North,0,0.0,0.0,38,0.00,CLR,CLR,0.00,WeatherDisplay:10.37,2013-03-07 20:06:00,
2013-03-07 15:11:00,56.1,30.8,29.97,North,0,0.0,0.0,38,0.00,CLR,CLR,0.00,WeatherDisplay:10.37,2013-03-07 20:11:00,
2013-03-07 15:16:00,56.3,31.0,29.97,North,0,0.0,0.0,38,0.00,CLR,CLR,0.00,WeatherDisplay:10.37,2013-03-07 20:16:00,
2013-03-07 15:21:00,56.3,31.0,29.97,North,0,0.0,0.0,38,0.00,CLR,CLR,0.00,WeatherDisplay:10.37,2013-03-07 20:21:00,
2013-03-07 15:26:00,55.9,30.7,29.97,North,0,0.0,0.0,38,0.00,CLR,CLR,0.00,WeatherDisplay:10.37,2013-03-07 20:26:00,
2013-03-07 15:31:00,56.1,30.8,29.97,North,0,0.0,0.0,38,0.00,CLR,CLR,0.00,WeatherDisplay:10.37,2013-03-07 20:31:00,
2013-03-07 15:36:00,56.3,31.0,29.97,North,0,0.0,0.0,38,0.00,CLR,CLR,0.00,WeatherDisplay:10.37,2013-03-07 20:36:00,
2013-03-07 15:42:00,55.8,29.9,29.97,North,0,0.0,0.0,37,0.00,CLR,CLR,0.00,WeatherDisplay:10.37,2013-03-07 20:42:00,
2013-03-07 15:47:00,55.6,30.4,29.97,North,0,0.0,0.0,38,0.00,CLR,CLR,0.00,WeatherDisplay:10.37,2013-03-07 20:47:00,
2013-03-07 15:52:00,55.4,30.2,29.97,North,0,0.0,0.0,38,0.00,CLR,CLR,0.00,WeatherDisplay:10.37,2013-03-07 20:52:00,
2013-03-07 15:57:00,55.2,30.0,29.97,North,0,0.0,0.0,38,0.00,CLR,CLR,0.00,WeatherDisplay:10.37,2013-03-07 20:57:00,
2013-03-07 16:02:00,55.0,29.9,29.97,North,0,0.0,0.0,38,0.00,CLR,CLR,0.00,WeatherDisplay:10.37,2013-03-07 21:02:00,
2013-03-07 16:07:00,55.9,30.7,29.97,North,0,0.0,0.0,38,0.00,CLR,CLR,0.00,WeatherDisplay:10.37,2013-03-07 21:07:00,
2013-03-07 16:13:00,55.4,30.2,29.97,North,0,0.0,0.0,38,0.00,CLR,CLR,0.00,WeatherDisplay:10.37,2013-03-07 21:13:00,
2013-03-07 16:18:00,55.2,30.7,29.97,North,0,0.0,0.0,39,0.00,CLR,CLR,0.00,WeatherDisplay:10.37,2013-03-07 21:18:00,
2013-03-07 16:23:00,54.9,30.3,29.97,North,0,0.0,0.0,39,0.00,CLR,CLR,0.00,WeatherDisplay:10.37,2013-03-07 21:23:00,
2013-03-07 16:28:00,54.9,30.3,29.97,North,0,0.0,0.0,39,0.00,CLR,CLR,0.00,WeatherDisplay:10.37,2013-03-07 21:28:00,
2013-03-07 16:34:00,54.3,29.9,29.97,North,0,0.0,0.0,39,0.00,CLR,CLR,0.00,WeatherDisplay:10.37,2013-03-07 21:34:00,
2013-03-07 16:39:00,53.8,29.4,29.97,North,0,0.0,0.0,39,0.00,CLR,CLR,0.00,WeatherDisplay:10.37,2013-03-07 21:39:00,
2013-03-07 16:44:00,53.8,30.0,29.97,North,0,0.0,0.0,40,0.00,CLR,CLR,0.00,WeatherDisplay:10.37,2013-03-07 21:44:00,
2013-03-07 16:49:00,53.6,29.2,30.00,North,0,0.0,0.0,39,0.00,CLR,CLR,0.00,WeatherDisplay:10.37,2013-03-07 21:49:00,
2013-03-07 16:55:00,53.1,29.4,30.00,North,0,0.0,0.0,40,0.00,CLR,CLR,0.00,WeatherDisplay:10.37,2013-03-07 21:55:00,
2013-03-07 17:00:00,52.9,29.2,30.00,North,0,0.0,0.0,40,0.00,CLR,CLR,0.00,WeatherDisplay:10.37,2013-03-07 22:00:00,
2013-03-07 17:05:00,52.2,28.5,30.00,North,0,0.0,0.0,40,0.00,CLR,CLR,0.00,WeatherDisplay:10.37,2013-03-07 22:05:00,
2013-03-07 17:10:00,52.0,28.4,30.00,North,0,0.0,0.0,40,0.00,CLR,CLR,0.00,WeatherDisplay:10.37,2013-03-07 22:10:00,
2013-03-07 17:16:00,51.6,28.7,30.00,North,0,0.0,0.0,41,0.00,CLR,CLR,0.00,WeatherDisplay:10.37,2013-03-07 22:16:00,
2013-03-07 17:21:00,51.6,28.7,30.00,North,0,0.0,0.0,41,0.00,CLR,CLR,0.00,WeatherDisplay:10.37,2013-03-07 22:21:00,
2013-03-07 17:26:00,51.3,28.3,30.00,North,0,0.0,0.0,41,0.00,CLR,CLR,0.00,WeatherDisplay:10.37,2013-03-07 22:26:00,
2013-03-07 17:31:00,50.4,28.1,30.00,North,0,0.0,0.0,42,0.00,CLR,CLR,0.00,WeatherDisplay:10.37,2013-03-07 22:31:00,
2013-03-07 17:36:00,50.2,27.9,30.00,North,0,0.0,0.0,42,0.00,CLR,CLR,0.00,WeatherDisplay:10.37,2013-03-07 22:36:00,
2013-03-07 17:41:00,49.6,28.0,30.00,North,0,0.0,0.0,43,0.00,CLR,CLR,0.00,WeatherDisplay:10.37,2013-03-07 22:41:00,
2013-03-07 17:46:00,49.1,28.1,30.00,North,0,0.0,0.0,44,0.00,CLR,CLR,0.00,WeatherDisplay:10.37,2013-03-07 22:46:00,
2013-03-07 17:52:00,48.7,27.8,30.00,North,0,0.0,0.0,44,0.00,CLR,CLR,0.00,WeatherDisplay:10.37,2013-03-07 22:52:00,
2013-03-07 17:57:00,48.4,27.4,30.00,North,0,0.0,0.0,44,0.00,CLR,CLR,0.00,WeatherDisplay:10.37,2013-03-07 22:57:00,
2013-03-07 18:02:00,48.1,48.1,30.03,North,0,0.0,0.0,100,0.00,CLR,CLR,0.00,WeatherDisplay:10.37,2013-03-07 23:02:00,
2013-03-07 18:07:00,47.7,27.3,30.03,North,0,0.0,0.0,45,0.00,CLR,CLR,0.00,WeatherDisplay:10.37,2013-03-07 23:07:00,
2013-03-07 18:12:00,47.3,27.5,30.03,North,0,0.0,0.0,46,0.00,CLR,CLR,0.00,WeatherDisplay:10.37,2013-03-07 23:12:00,
2013-03-07 18:17:00,47.3,27.5,30.03,North,0,0.0,0.0,46,0.00,CLR,CLR,0.00,WeatherDisplay:10.37,2013-03-07 23:17:00,
2013-03-07 18:23:00,46.9,27.7,30.03,North,0,0.0,0.0,47,0.00,CLR,CLR,0.00,WeatherDisplay:10.37,2013-03-07 23:23:00,
2013-03-07 18:28:00,46.6,27.4,30.03,North,0,0.0,0.0,47,0.00,CLR,CLR,0.00,WeatherDisplay:10.37,2013-03-07 23:28:00,
2013-03-07 18:33:00,46.4,27.8,30.03,North,0,0.0,0.0,48,0.00,CLR,CLR,0.00,WeatherDisplay:10.37,2013-03-07 23:33:00,
2013-03-07 18:38:00,46.6,27.4,30.03,North,0,0.0,0.0,47,0.00,CLR,CLR,0.00,WeatherDisplay:10.37,2013-03-07 23:38:00,
2013-03-07 18:43:00,46.6,27.4,30.03,North,0,0.0,0.0,47,0.00,CLR,CLR,0.00,WeatherDisplay:10.37,2013-03-07 23:43:00,
2013-03-07 18:49:00,46.8,27.6,30.06,North,0,0.0,0.0,47,0.00,CLR,CLR,0.00,WeatherDisplay:10.37,2013-03-07 23:49:00,
2013-03-07 18:54:00,46.9,27.7,30.06,North,0,0.0,0.0,47,0.00,CLR,CLR,0.00,WeatherDisplay:10.37,2013-03-07 23:54:00,
2013-03-07 18:59:00,46.8,27.6,30.06,North,0,0.0,0.0,47,0.00,CLR,CLR,0.00,WeatherDisplay:10.37,2013-03-07 23:59:00,
2013-03-07 19:04:00,46.8,27.6,30.06,North,0,0.0,0.0,47,0.00,CLR,CLR,0.00,WeatherDisplay:10.37,2013-03-08 00:04:00,
2013-03-07 19:09:00,46.9,27.7,30.06,North,0,0.0,0.0,47,0.00,CLR,CLR,0.00,WeatherDisplay:10.37,2013-03-08 00:09:00,
2013-03-07 19:15:00,46.8,28.1,30.06,North,0,0.0,0.0,48,0.00,CLR,CLR,0.00,WeatherDisplay:10.37,2013-03-08 00:15:00,
2013-03-07 19:20:00,46.2,27.6,30.06,North,0,0.0,0.0,48,0.00,CLR,CLR,0.00,WeatherDisplay:10.37,2013-03-08 00:20:00,
2013-03-07 19:25:00,46.0,27.4,30.06,North,0,0.0,0.0,48,0.00,CLR,CLR,0.00,WeatherDisplay:10.37,2013-03-08 00:25:00,
2013-03-07 19:30:00,46.2,27.6,30.06,North,0,0.0,0.0,48,0.00,CLR,CLR,0.00,WeatherDisplay:10.37,2013-03-08 00:30:00,
2013-03-07 19:35:00,45.9,27.8,30.06,North,0,0.0,0.0,49,0.00,CLR,CLR,0.00,WeatherDisplay:10.37,2013-03-08 00:35:00,
2013-03-07 19:41:00,45.9,27.8,30.06,North,0,0.0,0.0,49,0.00,CLR,CLR,0.00,WeatherDisplay:10.37,2013-03-08 00:41:00,
2013-03-07 19:46:00,45.7,27.6,30.06,North,0,0.0,0.0,49,0.00,CLR,CLR,0.00,WeatherDisplay:10.37,2013-03-08 00:46:00,
2013-03-07 19:51:00,45.1,27.1,30.06,North,0,0.0,0.0,49,0.00,CLR,CLR,0.00,WeatherDisplay:10.37,2013-03-08 00:51:00,
2013-03-07 19:56:00,45.5,27.4,30.06,North,0,0.0,0.0,49,0.00,CLR,CLR,0.00,WeatherDisplay:10.37,2013-03-08 00:56:00,
2013-03-07 20:01:00,45.7,27.6,30.06,North,0,0.0,0.0,49,0.00,CLR,CLR,0.00,WeatherDisplay:10.37,2013-03-08 01:01:00,
2013-03-07 20:06:00,45.0,26.9,30.06,North,0,0.0,0.0,49,0.00,CLR,CLR,0.00,WeatherDisplay:10.37,2013-03-08 01:06:00,
2013-03-07 20:11:00,45.0,26.9,30.06,North,0,0.0,0.0,49,0.00,CLR,CLR,0.00,WeatherDisplay:10.37,2013-03-08 01:11:00,
2013-03-07 20:17:00,44.4,26.9,30.06,North,0,0.0,0.0,50,0.00,CLR,CLR,0.00,WeatherDisplay:10.37,2013-03-08 01:17:00,
2013-03-07 20:22:00,44.2,26.8,30.06,North,0,0.0,0.0,50,0.00,CLR,CLR,0.00,WeatherDisplay:10.37,2013-03-08 01:22:00,
2013-03-07 20:27:00,44.2,26.8,30.06,North,0,0.0,0.0,50,0.00,CLR,CLR,0.00,WeatherDisplay:10.37,2013-03-08 01:27:00,
2013-03-07 20:33:00,43.7,26.3,30.06,North,0,0.0,0.0,50,0.00,CLR,CLR,0.00,WeatherDisplay:10.37,2013-03-08 01:33:00,
2013-03-07 20:38:00,43.7,26.3,30.06,North,0,0.0,0.0,50,0.00,CLR,CLR,0.00,WeatherDisplay:10.37,2013-03-08 01:38:00,
2013-03-07 20:43:00,43.7,26.7,30.06,North,0,0.0,0.0,51,0.00,CLR,CLR,0.00,WeatherDisplay:10.37,2013-03-08 01:43:00,
2013-03-07 20:48:00,43.7,26.7,30.06,North,0,0.0,0.0,51,0.00,CLR,CLR,0.00,WeatherDisplay:10.37,2013-03-08 01:48:00,
2013-03-07 20:53:00,43.5,27.0,30.06,North,0,0.0,0.0,52,0.00,CLR,CLR,0.00,WeatherDisplay:10.37,2013-03-08 01:53:00,
2013-03-07 20:58:00,43.3,26.4,30.06,North,0,0.0,0.0,51,0.00,CLR,CLR,0.00,WeatherDisplay:10.37,2013-03-08 01:58:00,
2013-03-07 21:03:00,43.7,27.2,30.06,North,0,0.0,0.0,52,0.00,CLR,CLR,0.00,WeatherDisplay:10.37,2013-03-08 02:03:00,
2013-03-07 21:08:00,43.7,27.2,30.06,North,0,0.0,0.0,52,0.00,CLR,CLR,0.00,WeatherDisplay:10.37,2013-03-08 02:08:00,
2013-03-07 21:14:00,44.1,28.0,30.06,North,0,0.0,0.0,53,0.00,CLR,CLR,0.00,WeatherDisplay:10.37,2013-03-08 02:14:00,
2013-03-07 21:19:00,43.9,27.8,30.06,North,0,0.0,0.0,53,0.00,CLR,CLR,0.00,WeatherDisplay:10.37,2013-03-08 02:19:00,
2013-03-07 21:24:00,44.2,28.2,30.06,North,0,0.0,0.0,53,0.00,CLR,CLR,0.00,WeatherDisplay:10.37,2013-03-08 02:24:00,
2013-03-07 21:29:00,43.7,28.1,30.06,North,0,0.0,0.0,54,0.00,CLR,CLR,0.00,WeatherDisplay:10.37,2013-03-08 02:29:00,
2013-03-07 21:34:00,43.7,28.1,30.06,North,0,0.0,0.0,54,0.00,CLR,CLR,0.00,WeatherDisplay:10.37,2013-03-08 02:34:00,
2013-03-07 21:39:00,43.5,28.0,30.06,North,0,0.0,0.0,54,0.00,CLR,CLR,0.00,WeatherDisplay:10.37,2013-03-08 02:39:00,
2013-03-07 21:44:00,44.1,28.0,30.06,North,0,0.0,0.0,53,0.00,CLR,CLR,0.00,WeatherDisplay:10.37,2013-03-08 02:44:00,
2013-03-07 21:49:00,44.2,27.7,30.06,North,0,0.0,0.0,52,0.00,CLR,CLR,0.00,WeatherDisplay:10.37,2013-03-08 02:49:00,
2013-03-07 21:54:00,43.9,27.4,30.06,North,0,0.0,0.0,52,0.00,CLR,CLR,0.00,WeatherDisplay:10.37,2013-03-08 02:54:00,
2013-03-07 21:59:00,43.9,27.4,30.06,North,0,0.0,0.0,52,0.00,CLR,CLR,0.00,WeatherDisplay:10.37,2013-03-08 02:59:00,
2013-03-07 22:05:00,43.5,27.0,30.06,North,0,0.0,0.0,52,0.00,CLR,CLR,0.00,WeatherDisplay:10.37,2013-03-08 03:05:00,
2013-03-07 22:10:00,43.2,26.7,30.06,North,0,0.0,0.0,52,0.00,CLR,CLR,0.00,WeatherDisplay:10.37,2013-03-08 03:10:00,
2013-03-07 22:15:00,43.0,26.5,30.06,North,0,0.0,0.0,52,0.00,CLR,CLR,0.00,WeatherDisplay:10.37,2013-03-08 03:15:00,
2013-03-07 22:20:00,42.8,26.4,30.06,North,0,0.0,0.0,52,0.00,CLR,CLR,0.00,WeatherDisplay:10.37,2013-03-08 03:20:00,
2013-03-07 22:26:00,42.6,26.2,30.06,North,0,0.0,0.0,52,0.00,CLR,CLR,0.00,WeatherDisplay:10.37,2013-03-08 03:26:00,
2013-03-07 22:31:00,42.3,26.3,30.06,North,0,0.0,0.0,53,0.00,CLR,CLR,0.00,WeatherDisplay:10.37,2013-03-08 03:31:00,
2013-03-07 22:36:00,42.1,26.2,30.09,North,0,0.0,0.0,53,0.00,CLR,CLR,0.00,WeatherDisplay:10.37,2013-03-08 03:36:00,
2013-03-07 22:41:00,42.1,26.2,30.09,North,0,0.0,0.0,53,0.00,CLR,CLR,0.00,WeatherDisplay:10.37,2013-03-08 03:41:00,
2013-03-07 22:46:00,41.5,25.7,30.09,North,0,0.0,0.0,53,0.00,CLR,CLR,0.00,WeatherDisplay:10.37,2013-03-08 03:46:00,
2013-03-07 22:51:00,41.7,25.8,30.06,North,0,0.0,0.0,53,0.00,CLR,CLR,0.00,WeatherDisplay:10.37,2013-03-08 03:51:00,
2013-03-07 22:56:00,41.4,25.5,30.06,North,0,0.0,0.0,53,0.00,CLR,CLR,0.00,WeatherDisplay:10.37,2013-03-08 03:56:00,
2013-03-07 23:02:00,41.2,25.3,30.06,North,0,0.0,0.0,53,0.00,CLR,CLR,0.00,WeatherDisplay:10.37,2013-03-08 04:02:00,
2013-03-07 23:07:00,41.0,25.2,30.06,North,0,0.0,0.0,53,0.00,CLR,CLR,0.00,WeatherDisplay:10.37,2013-03-08 04:07:00,
2013-03-07 23:12:00,41.2,25.8,30.06,North,0,0.0,0.0,54,0.00,CLR,CLR,0.00,WeatherDisplay:10.37,2013-03-08 04:12:00,
2013-03-07 23:17:00,40.8,25.9,30.06,North,0,0.0,0.0,55,0.00,CLR,CLR,0.00,WeatherDisplay:10.37,2013-03-08 04:17:00,
2013-03-07 23:22:00,41.0,26.1,30.06,North,0,0.0,0.0,55,0.00,CLR,CLR,0.00,WeatherDisplay:10.37,2013-03-08 04:22:00,
2013-03-07 23:28:00,40.5,25.5,30.06,North,0,0.0,0.0,55,0.00,CLR,CLR,0.00,WeatherDisplay:10.37,2013-03-08 04:28:00,
2013-03-07 23:33:00,40.6,25.7,30.06,North,0,0.0,0.0,55,0.00,CLR,CLR,0.00,WeatherDisplay:10.37,2013-03-08 04:33:00,
2013-03-07 23:38:00,40.6,25.7,30.06,North,0,0.0,0.0,55,0.00,CLR,CLR,0.00,WeatherDisplay:10.37,2013-03-08 04:38:00,
2013-03-07 23:43:00,40.6,25.7,30.06,North,0,0.0,0.0,55,0.00,CLR,CLR,0.00,WeatherDisplay:10.37,2013-03-08 04:43:00,
2013-03-07 23:48:00,40.5,25.5,30.06,North,0,0.0,0.0,55,0.00,CLR,CLR,0.00,WeatherDisplay:10.37,2013-03-08 04:48:00,
2013-03-07 23:54:00,40.8,25.9,30.06,North,0,0.0,0.0,55,0.00,CLR,CLR,0.00,WeatherDisplay:10.37,2013-03-08 04:54:00,
2013-03-07 23:59:00,40.5,25.5,30.06,North,0,0.0,0.0,55,0.00,CLR,CLR,0.00,WeatherDisplay:10.37,2013-03-08 04:59:00,